This is the latest recevied weather packets stored in our database for station/object M0UPS-13. If no packets are shown the sender has not sent any weather packets the latest 10 day(s).
| Time | Temp. | Humidity | Pressure | Rain* | Wind** | Luminosity | Snow |
|---|---|---|---|---|---|---|---|
| 1777390502 | 17.22° C | 35% | 1023 hPa | 0 mm | - | 223 W/m² | - |
| 1777390203 | 17.22° C | 35% | 1023.1 hPa | 0 mm | - | 391 W/m² | - |
| 1777389902 | 17.22° C | 34% | 1023.1 hPa | 0 mm | - | 373 W/m² | - |
| 1777389602 | 17.78° C | 35% | 1023 hPa | 0 mm | - | 337 W/m² | - |
| 1777389302 | 17.78° C | 34% | 1023.1 hPa | 0 mm | - | 522 W/m² | - |
| 1777389003 | 17.78° C | 35% | 1023 hPa | 0 mm | - | 557 W/m² | - |
| 1777388702 | 17.78° C | 34% | 1023.4 hPa | 0 mm | - | 509 W/m² | - |
| 1777388402 | 17.78° C | 34% | 1023.2 hPa | 0 mm | - | 498 W/m² | - |
| 1777388102 | 17.78° C | 35% | 1023.1 hPa | 0 mm | - | 514 W/m² | - |
| 1777387803 | 17.78° C | 35% | 1023.2 hPa | 0 mm | - | 523 W/m² | - |
| 1777387503 | 17.78° C | 40% | 1023.4 hPa | 0 mm | - | 532 W/m² | - |
| 1777387203 | 17.78° C | 37% | 1023.4 hPa | 0 mm | - | 555 W/m² | - |
| 1777386902 | 17.78° C | 39% | 1023.1 hPa | 0 mm | - | 552 W/m² | - |
| 1777386602 | 17.78° C | 40% | 1023.5 hPa | 0 mm | - | 557 W/m² | - |
| 1777386303 | 16.67° C | 41% | 1023.4 hPa | 0 mm | - | 587 W/m² | - |
| 1777386003 | 17.22° C | 43% | 1023.4 hPa | 0 mm | - | 194 W/m² | - |
| 1777385702 | 17.22° C | 43% | 1023.5 hPa | 0 mm | - | 607 W/m² | - |
| 1777385402 | 17.22° C | 43% | 1023.5 hPa | 0 mm | - | 585 W/m² | - |
| 1777385102 | 17.22° C | 43% | 1023.5 hPa | 0 mm | - | 616 W/m² | - |
| 1777384802 | 17.22° C | 46% | 1023.6 hPa | 0 mm | - | 623 W/m² | - |
| 1777384502 | 17.22° C | 44% | 1023.6 hPa | 0 mm | - | 641 W/m² | - |
| 1777384203 | 17.22° C | 46% | 1023.7 hPa | 0 mm | - | 620 W/m² | - |
| 1777383902 | 17.22° C | 45% | 1023.8 hPa | 0 mm | - | 635 W/m² | - |
| 1777383602 | 17.22° C | 46% | 1023.8 hPa | 0 mm | - | 664 W/m² | - |
| 1777383303 | 17.22° C | 45% | 1023.7 hPa | 0 mm | - | 715 W/m² | - |
* Rain latest hour (hover to see other rain measurements)
** Current wind speed in m/s (hover to see current wind gust speed)